TimeEDT,TemperatureF,Dew PointF,Humidity,Sea Level PressureIn,VisibilityMPH,Wind Direction,Wind SpeedMPH,Gust SpeedMPH,PrecipitationIn,Events,Conditions,WindDirDegrees,DateUTC
12:15 AM,66.6,62.8,88,30.24,10.0,SE,4.6,-,N/A,,Clear,140,2013-04-17 04:15:00
12:35 AM,66.7,62.2,85,30.25,10.0,SSE,3.5,-,N/A,,Clear,160,2013-04-17 04:35:00
12:55 AM,66.9,62.2,85,30.25,10.0,SSE,3.5,-,N/A,,Clear,150,2013-04-17 04:55:00
1:15 AM,66.2,62.1,86,30.25,10.0,South,3.5,-,N/A,,Clear,180,2013-04-17 05:15:00
1:35 AM,65.5,61.9,88,30.26,10.0,Calm,Calm,-,N/A,,Clear,0,2013-04-17 05:35:00
1:55 AM,63.1,61.3,94,30.26,10.0,Calm,Calm,-,N/A,,Clear,0,2013-04-17 05:55:00
2:15 AM,61.2,61.2,100,30.25,10.0,Calm,Calm,-,N/A,,Clear,0,2013-04-17 06:15:00
2:35 AM,61.2,61.2,100,30.24,10.0,Calm,Calm,-,N/A,,Clear,0,2013-04-17 06:35:00
2:55 AM,60.3,60.3,100,30.25,10.0,Calm,Calm,-,N/A,,Clear,0,2013-04-17 06:55:00
3:15 AM,60.6,60.4,99,30.25,10.0,Calm,Calm,-,N/A,,Clear,0,2013-04-17 07:15:00
3:35 AM,60.8,60.8,100,30.25,10.0,Calm,Calm,-,N/A,,Clear,0,2013-04-17 07:35:00
3:55 AM,59.4,59.4,100,30.25,10.0,Calm,Calm,-,N/A,,Clear,0,2013-04-17 07:55:00
4:15 AM,59.9,59.9,100,30.26,10.0,Calm,Calm,-,N/A,,Clear,0,2013-04-17 08:15:00
4:35 AM,58.3,58.3,100,30.26,10.0,Calm,Calm,-,N/A,,Clear,0,2013-04-17 08:35:00
4:55 AM,58.1,58.1,100,30.26,10.0,Calm,Calm,-,N/A,,Clear,0,2013-04-17 08:55:00
5:15 AM,57.4,57.4,100,30.27,7.0,Calm,Calm,-,N/A,,Clear,0,2013-04-17 09:15:00
5:35 AM,55.6,55.6,100,30.26,7.0,Calm,Calm,-,N/A,,Clear,0,2013-04-17 09:35:00
5:55 AM,56.1,56.1,100,30.27,7.0,Calm,Calm,-,N/A,,Clear,0,2013-04-17 09:55:00
6:15 AM,56.3,56.3,100,30.27,5.0,Calm,Calm,-,N/A,,Clear,0,2013-04-17 10:15:00
6:35 AM,55.6,55.6,100,30.27,10.0,Calm,Calm,-,N/A,,Clear,0,2013-04-17 10:35:00
6:55 AM,55.9,55.9,100,30.27,7.0,Calm,Calm,-,N/A,,Clear,0,2013-04-17 10:55:00
7:15 AM,55.9,55.9,100,30.27,4.0,Calm,Calm,-,N/A,,Clear,0,2013-04-17 11:15:00
7:35 AM,56.8,56.8,100,30.28,10.0,Calm,Calm,-,N/A,,Clear,0,2013-04-17 11:35:00
7:55 AM,59.2,59.2,100,30.28,10.0,Calm,Calm,-,N/A,,Clear,0,2013-04-17 11:55:00
8:15 AM,60.8,60.8,100,30.28,10.0,Calm,Calm,-,N/A,,Clear,0,2013-04-17 12:15:00
8:35 AM,63.7,62.6,96,30.28,10.0,Calm,Calm,-,N/A,,Clear,0,2013-04-17 12:35:00
8:55 AM,66.0,62.6,89,30.28,10.0,Calm,Calm,-,N/A,,Clear,0,2013-04-17 12:55:00
9:15 AM,67.8,62.4,83,30.27,10.0,Calm,Calm,-,N/A,,Clear,0,2013-04-17 13:15:00
9:35 AM,69.3,62.8,80,30.27,10.0,Calm,Calm,-,N/A,,Clear,0,2013-04-17 13:35:00
10:15 AM,72.5,62.4,71,30.27,10.0,Calm,Calm,-,N/A,,Clear,0,2013-04-17 14:15:00
10:35 AM,73.8,62.1,67,30.27,10.0,Calm,Calm,-,N/A,,Clear,0,2013-04-17 14:35:00
10:55 AM,74.5,61.9,65,30.27,10.0,Calm,Calm,-,N/A,,Clear,0,2013-04-17 14:55:00
11:15 AM,75.4,63.0,65,30.26,10.0,SE,3.5,-,N/A,,Clear,130,2013-04-17 15:15:00
11:35 AM,77.2,63.3,62,30.26,10.0,Calm,Calm,-,N/A,,Clear,0,2013-04-17 15:35:00
11:55 AM,77.2,64.2,64,30.25,10.0,East,3.5,-,N/A,,Clear,80,2013-04-17 15:55:00
12:15 PM,78.1,63.9,61,30.24,10.0,ENE,3.5,-,N/A,,Clear,60,2013-04-17 16:15:00
12:35 PM,77.9,63.3,61,30.24,10.0,Calm,Calm,-,N/A,,Clear,0,2013-04-17 16:35:00
1:15 PM,80.1,64.4,59,30.23,10.0,SSE,3.5,-,N/A,,Scattered Clouds,150,2013-04-17 17:15:00
1:35 PM,80.4,64.2,58,30.22,10.0,SSW,5.8,-,N/A,,Scattered Clouds,200,2013-04-17 17:35:00
1:55 PM,81.1,64.0,56,30.21,10.0,South,4.6,-,N/A,,Scattered Clouds,170,2013-04-17 17:55:00
2:15 PM,81.0,63.1,54,30.21,10.0,Calm,Calm,-,N/A,,Clear,0,2013-04-17 18:15:00
2:35 PM,82.4,64.0,54,30.20,10.0,East,4.6,-,N/A,,Clear,90,2013-04-17 18:35:00
2:55 PM,82.8,63.0,51,30.19,10.0,ESE,4.6,-,N/A,,Scattered Clouds,120,2013-04-17 18:55:00
3:15 PM,83.5,64.0,52,30.18,10.0,ESE,3.5,-,N/A,,Scattered Clouds,120,2013-04-17 19:15:00
3:35 PM,82.2,61.9,50,30.17,10.0,East,5.8,-,N/A,,Scattered Clouds,90,2013-04-17 19:35:00
3:55 PM,83.1,63.5,51,30.17,10.0,Calm,Calm,-,N/A,,Scattered Clouds,0,2013-04-17 19:55:00
4:35 PM,82.8,62.1,49,30.16,10.0,SE,4.6,-,N/A,,Scattered Clouds,130,2013-04-17 20:35:00
4:55 PM,82.2,62.1,50,30.16,10.0,SE,5.8,-,N/A,,Clear,140,2013-04-17 20:55:00
5:15 PM,82.4,62.4,51,30.16,10.0,SE,8.1,-,N/A,,Scattered Clouds,140,2013-04-17 21:15:00
5:35 PM,82.2,62.6,51,30.16,10.0,Calm,Calm,-,N/A,,Scattered Clouds,0,2013-04-17 21:35:00
5:55 PM,81.0,63.0,54,30.16,10.0,SE,4.6,-,N/A,,Scattered Clouds,140,2013-04-17 21:55:00
6:15 PM,80.6,62.6,54,30.17,10.0,ESE,4.6,-,N/A,,Clear,110,2013-04-17 22:15:00
6:35 PM,81.0,62.2,53,30.17,10.0,SE,4.6,-,N/A,,Clear,130,2013-04-17 22:35:00
6:55 PM,80.6,63.1,55,30.16,10.0,SE,3.5,-,N/A,,Clear,140,2013-04-17 22:55:00
7:15 PM,79.3,63.5,58,30.17,10.0,Calm,Calm,-,N/A,,Clear,0,2013-04-17 23:15:00
7:35 PM,78.1,63.1,60,30.17,10.0,South,3.5,-,N/A,,Clear,180,2013-04-17 23:35:00
7:55 PM,77.0,63.1,62,30.17,10.0,Calm,Calm,-,N/A,,Clear,0,2013-04-17 23:55:00
8:15 PM,72.7,64.0,74,30.17,10.0,Calm,Calm,-,N/A,,Clear,0,2013-04-18 00:15:00
8:35 PM,70.9,64.2,79,30.17,10.0,SE,3.5,-,N/A,,Clear,140,2013-04-18 00:35:00
8:55 PM,71.1,63.9,78,30.17,10.0,Calm,Calm,-,N/A,,Clear,0,2013-04-18 00:55:00
9:15 PM,68.4,64.0,86,30.17,10.0,Calm,Calm,-,N/A,,Clear,0,2013-04-18 01:15:00
9:35 PM,68.0,64.0,87,30.17,10.0,Calm,Calm,-,N/A,,Clear,0,2013-04-18 01:35:00
9:55 PM,67.3,63.7,88,30.17,10.0,Calm,Calm,-,N/A,,Clear,0,2013-04-18 01:55:00
10:15 PM,70.2,63.0,78,30.17,10.0,South,3.5,-,N/A,,Clear,180,2013-04-18 02:15:00
10:55 PM,68.2,63.0,83,30.16,10.0,Calm,Calm,-,N/A,,Clear,0,2013-04-18 02:55:00
11:15 PM,69.4,62.6,79,30.16,10.0,SSE,6.9,-,N/A,,Clear,160,2013-04-18 03:15:00
11:35 PM,70.2,62.4,76,30.16,10.0,SSE,4.6,-,N/A,,Clear,150,2013-04-18 03:35:00
11:55 PM,69.8,62.1,76,30.17,10.0,SSE,4.6,-,N/A,,Clear,160,2013-04-18 03:55:00